Flag for Equatorial Guinea Weather past 2 weeks in Malabo, Equatorial Guinea

Now
79 °F

Thunderstorms. Broken clouds.


Feels Like: 82 °F
Forecast: 75 / 86 °F
Wind: 9 mph from North

Location: Malabo/Fernando Poo


UV Index: 3 (Moderate)

Visibility: N/A


Pressure: 29.89 "Hg

Humidity: 84%

Dew point: 73 °F

Location of MalaboLocation

Historic Weather in Malabo

°F

Malabo temperature yesterday

Maximum temperature yesterday: 88 °F (at 11:00 AM)
Minimum temperature yesterday: 75 °F (at 12:00 AM)
Average temperature yesterday: 81 °F

Past Weeks' High & Low Weather Summary

 TemperatureHumidityPressure
High90 °F (Apr 12, 1:00 PM)94% (Apr 11, 1:00 AM)29.95 "Hg (Apr 11, 1:00 AM)
Low72 °F (Apr 16, 5:00 AM)59% (Apr 12, 12:00 PM)29.74 "Hg (Apr 12, 4:00 PM)
Average80 °F82%29.84 "Hg
* Reported Apr 9 1:00 PM — Apr 20 8:00 AM, Malabo, Weather by CustomWeather, © 2014

Note: Actual official high and low records may vary slightly from our data, if they occured in-between our weather recording intervals... More about our weather records

Advertising

Historic Weather Conditions — Data for Previous 24 hours

 ConditionsComfort  
Time TempWeatherWind HumidityBarometerVisibility
8:00 AM
Apr 20
79 °FThunderstorms. Scattered clouds.5 mph89%29.86 "HgN/A
7:00 AM77 °FThunderstorms. Passing clouds.5 mph89%29.83 "HgN/A
6:00 AM77 °FPassing clouds.6 mph89%29.83 "HgN/A
5:00 AM75 °FPassing clouds.3 mph94%29.83 "HgN/A
4:00 AM77 °FPassing clouds.3 mph89%29.83 "HgN/A
3:00 AM77 °FThunderstorms. Passing clouds.6 mph89%29.83 "HgN/A
2:00 AM77 °FThunderstorms. Passing clouds.6 mph89%29.83 "HgN/A
1:00 AM77 °FThunderstorms. Passing clouds.2 mph89%29.86 "HgN/A
12:00 AM77 °FThunderstorms. Passing clouds.8 mph89%29.86 "HgN/A
11:00 PM
Apr 19
79 °FThunderstorms. Passing clouds.6 mph89%29.89 "HgN/A
10:00 PM79 °FThunderstorms. Passing clouds.7 mph89%29.89 "HgN/A
9:00 PM79 °FThunderstorms. Passing clouds.5 mph89%29.86 "HgN/A
8:30 PM81 °FThunderstorms. Passing clouds.7 mph84%29.86 "HgN/A
8:00 PM81 °FThunderstorms. Passing clouds.6 mph84%29.86 "HgN/A
7:00 PM82 °FPassing clouds.5 mph79%29.83 "HgN/A
6:00 PM84 °FPassing clouds.8 mph79%29.80 "HgN/A
5:00 PM86 °FPassing clouds.10 mph75%29.77 "HgN/A
4:00 PM88 °FScattered clouds.7 mph70%29.80 "HgN/A
3:00 PM88 °FThunderstorms. Broken clouds.6 mph66%29.80 "HgN/A
2:00 PM82 °FThunderstorms. Broken clouds.7 mph74%29.86 "Hg5 mi
1:00 PM88 °FThunderstorms. Scattered clouds.3 mph70%29.86 "HgN/A
12:00 PM88 °FThunderstorms. Passing clouds.6 mph70%29.89 "HgN/A
11:00 AM88 °FPassing clouds.7 mph70%29.92 "HgN/A
10:00 AM84 °FPassing clouds.5 mph79%29.89 "HgN/A
9:00 AM84 °FPassing clouds.6 mph79%29.89 "HgN/A
Weather by CustomWeather, © 2014

See weather overview